Indian Mountain, AK

5:30 PM AKDT on April 19, 2018 (GMT -0800)
Indian Mountain

Weather History for PAIM - September, 2013

Change the Weather History Date:

Saturday, September 7, 2013

  Actual Average Record
Temperature  
Mean Temperature 49 °F -  
Max Temperature 54 °F 50 °F 60 °F (2008)
Min Temperature 43 °F 35 °F 28 °F (2004)
Degree Days  
Heating Degree Days 16    
Moisture  
Dew Point 39 °F    
Average Humidity 70    
Maximum Humidity 83    
Minimum Humidity 54    
Precipitation  
Precipitation 0.02 in - - ()
Sea Level Pressure  
Sea Level Pressure 29.67 in    
Wind  
Wind Speed 6 mph (NE)    
Max Wind Speed 12 mph    
Max Gust Speed 21 mph    
Visibility 10 miles    
Events Rain    
Averages and records for this station are not official NWS values.
T = Trace of Precipitation, MM = Missing Value Source: NWS Daily Summary

Daily Weather History Graph

Daily Weather History Graph

Search for Another Location

Airport or City:

Astronomy

Sep. 07, 2013 Rise Set
Actual Time 7:11 AM AKDT 9:12 PM AKDT
Civil Twilight 6:15 AM AKDT 10:06 PM AKDT
Nautical Twilight 5:00 AM AKDT 11:21 PM AKDT
Astronomical Twilight 2:31 AM AKDT 1:28 AM AKDT
Moon 10:58 AM AKDT (9/7) 8:47 PM AKDT (9/7)
Length of Visible Light 15h 51m
Length of Day
14h 01m
Waxing Crescent, 6% of the Moon is Illuminated
Sep 7
Waxing Crescent
Sep 12
First Quarter
Sep 19
Full
Sep 26
Last Quarter
Oct 4
New

Hourly Weather History & Observations

Time (AKDT) Temp. Windchill Dew Point Humidity Pressure Visibility Wind Dir Wind Speed Gust Speed Precip Events Conditions
12:55 AM 47.1 °F - 40.8 °F 79% 29.63 in 10.0 mi Variable 4.6 mph - N/A Rain Light Rain Showers
1:55 AM 46.6 °F - 40.6 °F 80% 29.63 in 10.0 mi Variable 5.8 mph - 0.00 in Rain Light Rain
2:55 AM 46.0 °F 42.5 °F 41.2 °F 83% 29.62 in 10.0 mi Variable 6.9 mph - N/A Rain Light Rain Showers
3:42 AM 46.4 °F 42.4 °F 41.0 °F 81% 29.63 in 10.0 mi NE 8.1 mph 16.1 mph N/A Rain Light Rain
3:55 AM 46.0 °F 40.6 °F 41.0 °F 83% 29.63 in 10.0 mi NNE 11.5 mph 20.7 mph N/A Rain Light Rain
4:55 AM 46.0 °F 42.5 °F 39.9 °F 79% 29.63 in 10.0 mi NNE 6.9 mph - 0.00 in   Light Drizzle
5:02 AM 46.4 °F 42.9 °F 39.2 °F 76% 29.63 in 10.0 mi NNE 6.9 mph - N/A Rain Light Rain
5:42 AM 46.4 °F 43.5 °F 39.2 °F 76% 29.64 in 10.0 mi NE 5.8 mph - N/A   Light Drizzle
5:55 AM 45.9 °F 42.3 °F 39.4 °F 78% 29.64 in 10.0 mi NNE 6.9 mph - N/A   Overcast
6:55 AM 46.9 °F - 38.5 °F 72% 29.64 in 10.0 mi NE 5.8 mph 13.8 mph N/A   Mostly Cloudy
7:55 AM 46.4 °F 42.4 °F 38.5 °F 74% 29.65 in 10.0 mi North 8.1 mph - N/A   Overcast
8:55 AM 46.9 °F - 39.4 °F 75% 29.66 in 10.0 mi Variable 5.8 mph - N/A   Mostly Cloudy
9:55 AM 48.9 °F - 38.8 °F 68% 29.67 in 10.0 mi ENE 8.1 mph 12.7 mph N/A   Mostly Cloudy
10:55 AM 51.1 °F - 38.1 °F 61% 29.68 in 10.0 mi NNW 4.6 mph - N/A   Overcast
11:55 AM 51.3 °F - 38.8 °F 63% 29.70 in 10.0 mi Variable 3.5 mph - N/A   Overcast
12:55 PM 51.3 °F - 37.4 °F 59% 29.70 in 10.0 mi Variable 4.6 mph - N/A   Overcast
1:55 PM 51.8 °F - 37.6 °F 58% 29.71 in 10.0 mi SE 2.3 mph - N/A   Overcast
2:55 PM 52.9 °F - 38.5 °F 58% 29.70 in 10.0 mi East 4.6 mph - N/A   Mostly Cloudy
3:55 PM 53.8 °F - 37.2 °F 54% 29.70 in 10.0 mi ESE 6.9 mph - N/A   Mostly Cloudy
4:55 PM 53.4 °F - 38.8 °F 58% 29.70 in 10.0 mi Variable 3.5 mph - N/A   Overcast
5:55 PM 53.1 °F - 38.7 °F 58% 29.69 in 10.0 mi Variable 2.3 mph - N/A   Overcast
6:55 PM 53.1 °F - 38.8 °F 59% 29.69 in 10.0 mi Variable 1.2 mph - N/A   Overcast
7:55 PM 52.3 °F - 38.7 °F 60% 29.68 in 10.0 mi ENE 2.3 mph - N/A   Mostly Cloudy
8:55 PM 47.8 °F - 39.4 °F 72% 29.68 in 10.0 mi Variable 1.2 mph - N/A   Mostly Cloudy
9:55 PM 47.1 °F - 38.8 °F 73% 29.68 in 10.0 mi Variable 2.3 mph - N/A   Scattered Clouds
10:55 PM 46.0 °F - 38.7 °F 75% 29.68 in 10.0 mi Variable 1.2 mph - N/A   Mostly Cloudy
11:55 PM 43.5 °F 41.9 °F 38.3 °F 82% 29.67 in 10.0 mi NW 3.5 mph - N/A   Partly Cloudy